When you browse on this site, cookies collect data to enhance your experience and personalize the content and advertising you see.
Visit our Privacy Policy to learn more. By continuing to use the site, you agree to this use of cookies and data.
  • In Sweden
  • List of Countries
  • For 7 days
  • Water Temperature
  • Satellite Maps
  • Weather Map
  • Weather Widgets
  • user-avatar
    Login

    Hourly Weather Cleveland

    Today, 24 May, Friday

    Time Temperature Precipitation Wind Pressure Humidity
    00:00 +21°C° 0 mm 0 mps 741 mmHg 87%
    01:00 +21°C° 0 mm 0 mps 741 mmHg 88%
    02:00 +20°C° 0 mm 0 mps 741 mmHg 90%
    03:00 +20°C° 0 mm 0 mps 741 mmHg 91%
    04:00 +21°C° 0 mm 0 mps 741 mmHg 89%
    05:00 +22°C° 0 mm 0 mps 742 mmHg 86%
    06:00 +23°C° 0 mm 0 mps 742 mmHg 83%
    07:00 +25°C° 0 mm 0 mps 742 mmHg 75%
    08:00 +29°C° 0 mm 1 mps 743 mmHg 66%
    09:00 +31°C° 0 mm 1 mps 743 mmHg 57%
    10:00 +33°C° 0 mm 1 mps 743 mmHg 53%
    11:00 +34°C° 0 mm 1 mps 742 mmHg 48%
    12:00 +35°C° 0 mm 1 mps 742 mmHg 43%
    13:00 +34°C° 0 mm 1 mps 742 mmHg 45%
    14:00 +34°C° 0 mm 1 mps 741 mmHg 48%
    15:00 +33°C° 0 mm 1 mps 741 mmHg 50%
    16:00 +32°C° 0 mm 1 mps 740 mmHg 56%
    17:00 +31°C° 0 mm 1 mps 740 mmHg 62%
    18:00 +27°C° 0 mm 0 mps 740 mmHg 69%
    19:00 +26°C° 0 mm 0 mps 740 mmHg 72%
    20:00 +24°C° 0 mm 0 mps 740 mmHg 74%
    21:00 +23°C° 0 mm 0 mps 741 mmHg 77%
    22:00 +22°C° 0 mm 0 mps 741 mmHg 79%
    23:00 +22°C° 0 mm 0 mps 741 mmHg 82%

    Tomorrow, 25 May, Saturday

    Time Temperature Precipitation Wind Pressure Humidity
    00:00 +21°C° 0 mm 0 mps 740 mmHg 84%
    01:00 +21°C° 0 mm 0 mps 740 mmHg 86%
    02:00 +20°C° 0 mm 0 mps 740 mmHg 88%
    03:00 +20°C° 0 mm 0 mps 740 mmHg 89%
    04:00 +21°C° 0 mm 0 mps 740 mmHg 87%
    05:00 +22°C° 0 mm 0 mps 741 mmHg 84%
    06:00 +22°C° 0 mm 0 mps 741 mmHg 82%
    07:00 +27°C° 0 mm 1 mps 741 mmHg 73%
    08:00 +29°C° 0 mm 1 mps 742 mmHg 64%
    09:00 +32°C° 0 mm 1 mps 742 mmHg 56%
    10:00 +34°C° 0 mm 2 mps 742 mmHg 50%
    11:00 +34°C° 0 mm 2 mps 742 mmHg 45%
    12:00 +35°C° 0 mm 3 mps 742 mmHg 40%
    13:00 +35°C° 0 mm 3 mps 741 mmHg 40%
    14:00 +36°C° 0 mm 3 mps 741 mmHg 40%
    15:00 +36°C° 0 mm 3 mps 740 mmHg 41%
    16:00 +34°C° 0 mm 2 mps 740 mmHg 49%
    17:00 +31°C° 0 mm 2 mps 740 mmHg 57%
    18:00 +30°C° 0 mm 1 mps 740 mmHg 65%
    19:00 +28°C° 0 mm 1 mps 740 mmHg 70%
    20:00 +24°C° 0 mm 0 mps 741 mmHg 75%
    21:00 +23°C° 0 mm 0 mps 741 mmHg 80%
    22:00 +22°C° 0 mm 0 mps 741 mmHg 82%
    23:00 +22°C° 0 mm 0 mps 741 mmHg 83%

    Day after tomorrow, 26 May, Sunday

    Time Temperature Precipitation Wind Pressure Humidity
    00:00 +21°C° 0 mm 0 mps 740 mmHg 85%
    01:00 +21°C° 0 mm 0 mps 740 mmHg 87%
    02:00 +21°C° 0 mm 0 mps 740 mmHg 88%
    03:00 +20°C° 0 mm 0 mps 740 mmHg 89%
    04:00 +21°C° 0 mm 0 mps 740 mmHg 87%
    05:00 +22°C° 0 mm 0 mps 741 mmHg 84%
    06:00 +23°C° 0 mm 0 mps 741 mmHg 82%
    07:00 +25°C° 0 mm 0 mps 741 mmHg 72%
    08:00 +30°C° 0 mm 1 mps 742 mmHg 62%
    09:00 +33°C° 0 mm 1 mps 742 mmHg 52%
    10:00 +34°C° 0 mm 2 mps 742 mmHg 47%
    11:00 +35°C° 0 mm 2 mps 741 mmHg 42%
    12:00 +36°C° 0 mm 3 mps 741 mmHg 37%
    13:00 +36°C° 0 mm 3 mps 741 mmHg 37%
    14:00 +36°C° 0 mm 3 mps 740 mmHg 37%
    15:00 +36°C° 0 mm 3 mps 740 mmHg 37%
    16:00 +34°C° 0 mm 3 mps 739 mmHg 45%
    17:00 +31°C° 0 mm 2 mps 739 mmHg 54%
    18:00 +29°C° 0 mm 1 mps 739 mmHg 62%
    19:00 +27°C° 0 mm 1 mps 739 mmHg 66%
    20:00 +26°C° 0 mm 1 mps 739 mmHg 69%
    21:00 +22°C° 0 mm 0 mps 740 mmHg 73%
    22:00 +22°C° 0 mm 0 mps 740 mmHg 74%
    23:00 +21°C° 0 mm 0 mps 739 mmHg 76%

    27 May, Monday

    Time Temperature Precipitation Wind Pressure Humidity
    00:00 +21°C° 0 mm 0 mps 739 mmHg 77%
    01:00 +20°C° 0 mm 0 mps 739 mmHg 79%
    02:00 +20°C° 0 mm 0 mps 738 mmHg 80%
    03:00 +20°C° 0 mm 0 mps 738 mmHg 82%
    04:00 +21°C° 0 mm 0 mps 738 mmHg 80%
    05:00 +21°C° 0 mm 0 mps 739 mmHg 79%
    06:00 +22°C° 0 mm 0 mps 739 mmHg 77%
    07:00 +25°C° 0 mm 0 mps 739 mmHg 69%
    08:00 +30°C° 0 mm 1 mps 739 mmHg 61%
    09:00 +32°C° 0 mm 1 mps 739 mmHg 53%
    10:00 +33°C° 0 mm 1 mps 739 mmHg 49%
    11:00 +35°C° 0 mm 2 mps 739 mmHg 44%
    12:00 +36°C° 0 mm 2 mps 738 mmHg 40%
    13:00 +35°C° 0 mm 2 mps 738 mmHg 43%
    14:00 +35°C° 0 mm 2 mps 737 mmHg 46%
    15:00 +34°C° 0 mm 2 mps 737 mmHg 49%
    16:00 +32°C° 0 mm 1 mps 737 mmHg 55%
    17:00 +31°C° 0 mm 1 mps 736 mmHg 61%
    18:00 +29°C° 0 mm 1 mps 736 mmHg 67%
    19:00 +28°C° 0 mm 1 mps 736 mmHg 70%
    20:00 +27°C° 0 mm 1 mps 736 mmHg 73%
    21:00 +25°C° 0 mm 1 mps 737 mmHg 76%
    22:00 +25°C° 0 mm 1 mps 736 mmHg 77%
    23:00 +25°C° 0 mm 1 mps 736 mmHg 78%

    28 May, Tuesday

    Time Temperature Precipitation Wind Pressure Humidity
    00:00 +24°C° 0 mm 1 mps 736 mmHg 79%
    01:00 +24°C° 0 mm 1 mps 736 mmHg 81%
    02:00 +23°C° 0 mm 1 mps 736 mmHg 82%
    03:00 +23°C° 0 mm 1 mps 736 mmHg 84%
    04:00 +23°C° 0 mm 1 mps 736 mmHg 83%
    05:00 +23°C° 0 mm 1 mps 737 mmHg 82%
    06:00 +24°C° 0 mm 1 mps 737 mmHg 80%
    07:00 +26°C° 0 mm 1 mps 737 mmHg 71%
    08:00 +29°C° 0 mm 2 mps 737 mmHg 62%
    09:00 +31°C° 0 mm 2 mps 737 mmHg 53%
    10:00 +32°C° 0 mm 2 mps 737 mmHg 50%
    11:00 +34°C° 0 mm 3 mps 737 mmHg 46%
    12:00 +35°C° 0 mm 3 mps 736 mmHg 42%
    13:00 +36°C° 0 mm 3 mps 736 mmHg 42%
    14:00 +36°C° 0 mm 4 mps 735 mmHg 41%
    15:00 +36°C° 0 mm 4 mps 735 mmHg 41%
    16:00 +34°C° 0 mm 3 mps 735 mmHg 48%
    17:00 +31°C° 0 mm 2 mps 735 mmHg 54%
    18:00 +30°C° 0 mm 2 mps 735 mmHg 61%
    19:00 +28°C° 0 mm 2 mps 735 mmHg 63%
    20:00 +26°C° 0 mm 1 mps 735 mmHg 65%
    21:00 +25°C° 0 mm 1 mps 735 mmHg 66%
    22:00 +24°C° 0 mm 1 mps 735 mmHg 68%
    23:00 +23°C° 0 mm 1 mps 735 mmHg 69%

    29 May, Wednesday

    Time Temperature Precipitation Wind Pressure Humidity
    00:00 +23°C° 0 mm 1 mps 735 mmHg 70%
    01:00 +23°C° 0 mm 1 mps 735 mmHg 71%
    02:00 +23°C° 0 mm 2 mps 735 mmHg 71%
    03:00 +21°C° 0 mm 2 mps 735 mmHg 72%
    04:00 +23°C° 0 mm 2 mps 735 mmHg 74%
    05:00 +23°C° 0 mm 2 mps 736 mmHg 76%
    06:00 +24°C° 0 mm 2 mps 736 mmHg 78%
    07:00 +26°C° 0 mm 3 mps 736 mmHg 68%
    08:00 +29°C° 0 mm 3 mps 736 mmHg 58%
    09:00 +32°C° 0 mm 4 mps 736 mmHg 48%
    10:00 +33°C° 0 mm 5 mps 736 mmHg 45%
    11:00 +34°C° 0 mm 5 mps 736 mmHg 41%
    12:00 +36°C° 0 mm 6 mps 736 mmHg 38%
    13:00 +36°C° 0 mm 6 mps 735 mmHg 38%
    14:00 +36°C° 0 mm 5 mps 735 mmHg 38%
    15:00 +36°C° 0 mm 5 mps 734 mmHg 38%
    16:00 +34°C° 0 mm 4 mps 734 mmHg 44%
    17:00 +31°C° 0 mm 3 mps 735 mmHg 51%
    18:00 +30°C° 0 mm 2 mps 735 mmHg 58%
    19:00 +29°C° 0 mm 2 mps 735 mmHg 60%
    20:00 +27°C° 0 mm 2 mps 735 mmHg 63%
    21:00 +26°C° 0 mm 2 mps 735 mmHg 65%
    22:00 +26°C° 0 mm 2 mps 735 mmHg 68%
    23:00 +25°C° 0 mm 2 mps 735 mmHg 71%
    Show more